User: anonymous   Login
Location: Unspecified
(0.0000°N, 0.0000°E)
Time: 11:43:51
(UTC+02:00)
Language:

GP-B - Orbit

View from above orbital plane
View from above orbital plane
View from above satellite
View from above satellite

Ground track
Ground track

The orbit data is extracted from the following two-line orbital elements,

1 28230U 04014A   15115.48231261  .00001047  00000-0  14275-3 0  9998
2 28230 089.8732 135.5090 0003423 090.2401 269.9213 14.78096265593316
Epoch (UTC): 25 April 2015 11:34:31
Eccentricity: 0.0003423
inclination: 89.8732°
perigee height: 633 km
apogee height: 638 km
right ascension of ascending node: 135.5090°
argument of perigee: 90.2401°
revolutions per day: 14.78096265
mean anomaly at epoch: 269.9213°
orbit number at epoch: 59331

The dashed part of the orbit path shows where the satellite is in the earth's shadow,  

DLR